Weather Roundup
Issued by NWS Chicago, IL

Home | Current Version | Previous Version | Graphics & Text | Print | Product List | Glossary On
Versions: 1 2 3 4 5 6 7 8 9 10 11 12 13 14 15 16 17 18 19 20 21 22 23 24 25 26 27 28 29 30 31 32 33 34 35 36 37 38 39 40 41 42 43 44 45 46 47 48 49 50
000
NZUS59 KLOT 230410
HRRLOT

CHICAGO AREA WEATHER ROUNDUP
NATIONAL WEATHER SERVICE CHICAGO/ROMEOVILLE IL
1100 PM CDT WED OCT 22 2014

NOTE: "FAIR" INDICATES FEW OR NO CLOUDS BELOW 12,000 FEET WITH NO
SIGNIFICANT WEATHER AND/OR OBSTRUCTIONS TO VISIBILITY.

* THESE STATIONS ARE NOT UNDER NWS QUALITY CONTROL. THEY ALSO MAY NOT
  REPORT WEATHER SUCH AS PRECIPITATION OR FOG.

ILZ005-006-012>014-019>023-230500-
NORTHEAST ILLINOIS

CITY           SKY/WX    TMP DP  RH WIND       PRES   REMARKS
OHARE          CLEAR     39  35  86 CALM      30.27S
MIDWAY         CLEAR     45  37  73 CALM      30.28S
AURORA         CLEAR     36  31  82 CALM      30.28R
LANSING*       CLEAR     40  37  91 CALM      30.28S
JOLIET*        CLEAR     36  35  94 CALM      30.28S
WAUKEGAN       CLEAR     34  32  92 CALM      30.27S
DUPAGE AIRPORT CLEAR     38  33  82 CALM      30.27S
WHEELING       CLEAR     39  35  86 CALM      30.30S
KANKAKEE*      CLEAR     39  37  90 E3        30.29R
MORRIS*        CLEAR     39  37  91 CALM      30.27S
LEWIS AIRPORT* CLEAR     39  35  85 CALM      30.28S
NORTHERLY IS     N/A     50  42  74 SE8         N/A
$$

WIZ051-052-058>065-066-070>072-230500-
SOUTHEAST WISCONSIN

CITY           SKY/WX    TMP DP  RH WIND       PRES   REMARKS
MILWAUKEE      CLEAR     37  33  85 CALM      30.27S
KENOSHA*       CLEAR     36  34  92 CALM      30.27F
RACINE*        CLEAR     36  33  89 CALM      30.29S
BURLINGTON     CLEAR     30  30 100 CALM      30.27S
WAUKESHA       CLEAR     34  34 100 S5        30.27S WCI  30
WEST BEND      CLEAR     34  32  93 CALM      30.26S
$$

INZ001>003-010>013-019-020-230500-
NORTHWEST INDIANA

CITY           SKY/WX    TMP DP  RH WIND       PRES   REMARKS
GARY*          CLEAR     36  35  93 CALM      30.28S FOG
MICHIGAN CITY* NOT AVBL
RENSSELAER*    NOT AVBL
VALPARAISO     CLEAR     37  35  92 NE5       30.29R
$$

LMZ740>746-230500-
SOUTHERN LAKE MICHIGAN

STATION/POSITION TIME  SKY/WX   TEMP WIND        PRES    VSBY
                                AIR  DIR/SP/G
                 (UTC)          (F)  (DEG/KT/KT) (MB)    (MI)
HARRISON CRIB    0300            51  130/  8/ 10   N/A
BURNHAM HARBOR   0400            50  120/  6/  8   N/A
CALUMET HARBOR   0400            47  180/  3/  4 1023.9F
BURNS HARBOR     NOT AVBL
MICHIGAN CITY    0400            42  110/  8/ 10   N/A
$$

ABBREVIATIONS USED IN REMARKS
   TC - TEMPERATURE IN CELSIUS
  WCI - WIND CHILL INDEX
   HX - HEAT INDEX
  VSB - VISIBILITY
$$



USA.gov is the U.S. government's official web portal to all federal, state and local government web resources and services.